Home > Weather > Lafayette > Past weeks

Flag for U.S.A. Weather for the Past 2 Weeks in Lafayette, Indiana, U.S.A.

Now
39 °F

Clear.


Feels Like: 39 °F
Forecast: 31 / 44 °F
Wind: No wind

Location: Purdue University Airport

Current Time: Feb 6, 2016 at 7:32:12 PM

Latest Report: Feb 6, 2016 at 6:54 PM


Visibility: 10 mi

Pressure: 30.21 "Hg

Humidity: 62%

Dew point: 27 °F

Location of LafayetteLocation

Historic Weather in Lafayette — Graph

°F

Lafayette Temperature Yesterday

Maximum temperature yesterday: 31 °F (at 10:54 AM)
Minimum temperature yesterday: 21 °F (at 3:54 AM)
Average temperature yesterday: 26 °F

High & Low Weather Summary for the Past Weeks

 TemperatureHumidityPressure
High59 °F (Jan 31, 1:54 PM)100% (Jan 23, 11:54 PM)30.41 "Hg (Jan 23, 11:54 PM)
Low14 °F (Jan 23, 7:54 AM)46% (Jan 29, 2:54 PM)29.45 "Hg (Feb 2, 9:54 PM)
Average33 °F76%30.00 "Hg
* Reported Jan 22 6:01 PM — Feb 6 5:54 PM, Lafayette, Weather by CustomWeather, © 2016

Note: Actual official high and low records may vary slightly from our data, if they occured in-between our weather recording intervals... More about our weather records

Advertising

Lafayette Weather History for the Previous 24 Hours

 ConditionsComfort  
Time TempWeatherWind HumidityBarometerVisibility
5:54 PM
Sat, Feb 6
41 °FSunny.6 mph58%30.22 "Hg10 mi
4:54 PM43 °FSunny.6 mph53%30.23 "Hg10 mi
3:54 PM42 °FSunny.12 mph53%30.23 "Hg10 mi
2:54 PM41 °FSunny.8 mph53%30.24 "Hg10 mi
1:54 PM40 °FSunny.10 mph53%30.27 "Hg10 mi
12:54 PM39 °FSunny.8 mph53%30.29 "Hg10 mi
11:54 AM35 °FSunny.8 mph64%30.33 "Hg10 mi
10:54 AM31 °FSunny.7 mph76%30.35 "Hg9 mi
9:54 AM27 °FPartly sunny.6 mph85%30.36 "Hg8 mi
8:54 AM22 °FIce fog.No wind92%30.36 "Hg4 mi
7:54 AM19 °FIce fog.No wind92%30.36 "Hg4 mi
6:54 AM18 °FClear.3 mph88%30.34 "Hg10 mi
5:54 AM19 °FIce fog.No wind96%30.34 "Hg6 mi
4:54 AM18 °FIce fog.No wind96%30.35 "Hg5 mi
3:54 AM19 °FIce fog.No wind92%30.35 "Hg5 mi
2:54 AM19 °FIce fog.No wind100%30.35 "Hg6 mi
1:54 AM20 °FClear.No wind92%30.35 "Hg7 mi
12:54 AM21 °FClear.No wind92%30.36 "Hg8 mi
11:54 PM
Fri, Feb 5
22 °FClear.No wind89%30.36 "Hg9 mi
10:54 PM26 °FPassing clouds.No wind81%30.37 "Hg10 mi
9:54 PM26 °FOvercast.3 mph81%30.39 "Hg10 mi
8:54 PM23 °FPassing clouds.3 mph85%30.39 "Hg10 mi
7:54 PM28 °FOvercast.No wind75%30.40 "Hg10 mi
Weather by CustomWeather, © 2016

See weather overviewHow to use our weather pages